Date String (YYYY-MM-DD hh:mm:ss) UTC,Instrument flags,Ambient pressure (hPa),Sample flow (lpm),Bypass flow (lpm),Sample temperature (°C),Ambient temperature (°C),ASC tube jacket temperature (°C),LED temperature (°C),Box temperature (°C),Sample RH (%),Span deviation,Mass concentration (μg/m³),Mass concentration (μg/m³),Mass concentration (μg/m³)
DateTimeUTC,F1_M11,P_M11,Q1_M11,Q2_M11,T1_M11,T2_M11,T3_M11,T4_M11,T5_M11,U1_M11,ZSPAN_M11,X0_M11,X2_M11,X1_M11
2022-01-06 17:00:00,,0825.5,5.00,0.00,22.2,21.7,00.0,31.2,23.7,04.8,0001.7,0009.76,0005.80,0005.10
2022-01-06 17:01:00,,0825.5,5.00,0.00,22.1,21.4,00.0,31.2,23.5,04.7,0001.6,0009.67,0005.79,0005.11
2022-01-06 17:02:00,,0825.4,5.00,0.00,22.0,21.3,00.0,31.2,23.4,04.7,0001.1,0009.58,0005.75,0005.09
2022-01-06 17:03:00,,0825.2,5.01,0.00,22.0,21.9,00.0,31.2,23.6,04.7,0001.0,0009.64,0005.79,0005.12
2022-01-06 17:04:00,,0825.2,5.00,0.00,22.2,22.7,00.0,31.2,23.9,04.7,0001.0,0009.62,0005.80,0005.14
2022-01-06 17:05:00,,0825.3,4.99,0.00,22.3,23.2,00.0,31.2,24.1,04.7,0000.7,0009.66,0005.80,0005.14
2022-01-06 17:06:00,,0825.3,5.01,0.00,22.3,22.9,00.0,31.2,24.1,04.6,0001.0,0009.65,0005.80,0005.15
2022-01-06 17:07:00,,0825.2,5.00,0.00,22.3,22.5,00.0,31.2,24.0,04.7,0001.3,0009.81,0005.84,0005.17
2022-01-06 17:08:00,,0825.1,4.99,0.00,22.2,22.2,00.0,31.2,23.9,04.8,0001.4,0009.91,0005.87,0005.20
2022-01-06 17:09:00,,0825.1,5.01,0.00,22.2,21.9,00.0,31.2,23.7,04.8,0001.5,0009.79,0005.84,0005.21
2022-01-06 17:10:00,,0825.0,5.00,0.00,22.1,21.6,00.0,31.2,23.6,04.8,0001.7,0009.70,0005.81,0005.20
2022-01-06 17:11:00,,0824.9,4.98,0.00,22.0,21.3,00.0,31.2,23.4,04.8,0001.5,0009.93,0005.82,0005.19
2022-01-06 17:12:00,,0824.9,5.02,0.00,21.9,21.1,00.0,31.1,23.2,04.8,0001.5,0009.91,0005.82,0005.21
2022-01-06 17:13:00,,0825.2,4.98,0.00,21.9,21.5,00.0,31.1,23.3,04.7,0001.6,0009.87,0005.84,0005.24
2022-01-06 17:14:00,,0825.4,5.01,0.00,22.0,22.4,00.0,31.1,23.7,04.7,0001.5,0009.92,0005.84,0005.25
2022-01-06 17:15:00,,0825.3,4.99,0.00,22.2,23.0,00.0,31.2,24.0,04.6,0001.3,0009.89,0005.82,0005.24
2022-01-06 17:16:00,,0825.3,5.00,0.00,22.2,22.7,00.0,31.2,23.9,04.6,0001.5,0009.87,0005.85,0005.26
2022-01-06 17:17:00,,0825.2,5.00,0.00,22.1,22.3,00.0,31.2,23.8,04.6,0001.4,0009.87,0005.87,0005.28
2022-01-06 17:18:00,,0825.2,5.01,0.00,22.1,22.0,00.0,31.2,23.7,04.6,0001.1,0009.83,0005.88,0005.31
2022-01-06 17:19:00,,0825.3,4.99,0.00,22.1,21.7,00.0,31.1,23.6,04.6,0000.9,0009.81,0005.88,0005.33
2022-01-06 17:20:00,,0825.3,5.00,0.00,22.0,21.6,00.0,31.1,23.5,04.7,0001.1,0009.85,0005.91,0005.34
2022-01-06 17:21:00,,0825.2,5.02,0.00,22.0,21.4,00.0,31.1,23.4,04.7,0001.0,0009.97,0005.97,0005.37
2022-01-06 17:22:00,,0825.0,4.99,0.00,21.9,21.2,00.0,31.1,23.3,04.7,0001.2,0009.75,0005.97,0005.39
2022-01-06 17:23:00,,0824.9,4.99,0.00,21.9,21.6,00.0,31.1,23.4,04.7,0001.1,0009.74,0005.98,0005.41
2022-01-06 17:24:00,,0824.9,5.00,0.00,22.0,22.4,00.0,31.1,23.8,04.7,0001.2,0009.87,0006.02,0005.41
2022-01-06 17:25:00,,0824.9,5.01,0.00,22.2,23.1,00.0,31.1,24.1,04.6,0001.3,0009.83,0006.01,0005.41
2022-01-06 17:26:00,,0824.9,4.99,0.00,22.3,23.0,00.0,31.2,24.1,04.6,0001.4,0009.84,0006.05,0005.44
2022-01-06 17:27:00,,0824.8,5.01,0.00,22.2,22.5,00.0,31.2,23.9,04.6,0001.6,0010.01,0006.12,0005.47
2022-01-06 17:28:00,,0824.8,5.00,0.00,22.1,22.1,00.0,31.2,23.7,04.6,0001.7,0010.06,0006.14,0005.48
2022-01-06 17:29:00,,0824.9,4.99,0.00,22.0,21.7,00.0,31.1,23.5,04.6,0002.0,0010.01,0006.12,0005.48
2022-01-06 17:30:00,,0824.9,5.00,0.00,21.9,21.5,00.0,31.1,23.3,04.7,0002.4,0009.90,0006.11,0005.47
2022-01-06 17:31:00,,0824.8,5.01,0.00,21.8,21.2,00.0,31.1,23.2,04.7,0002.1,0010.04,0006.16,0005.49
2022-01-06 17:32:00,,0824.7,5.01,0.00,21.7,21.1,00.0,31.0,23.1,04.7,0002.2,0010.11,0006.18,0005.51
2022-01-06 17:33:00,,0824.6,4.99,0.00,21.8,21.7,00.0,31.0,23.4,04.7,0002.3,0010.19,0006.21,0005.52
2022-01-06 17:34:00,,0824.7,4.99,0.00,22.0,22.5,00.0,31.1,23.7,04.6,0002.3,0010.22,0006.19,0005.51
2022-01-06 17:35:00,,0824.4,5.01,0.00,22.1,23.3,00.0,31.1,24.0,04.6,0002.5,0010.18,0006.19,0005.52
2022-01-06 17:36:00,,0824.4,4.98,0.00,22.2,23.1,00.0,31.1,24.0,04.6,0002.6,0010.16,0006.21,0005.53
2022-01-06 17:37:00,,0824.3,5.00,0.00,22.1,22.5,00.0,31.1,23.7,04.5,0002.2,0010.13,0006.18,0005.51
2022-01-06 17:38:00,,0824.2,5.01,0.00,22.0,21.9,00.0,31.1,23.4,04.6,0002.2,0010.15,0006.17,0005.49
2022-01-06 17:39:00,,0824.3,4.99,0.00,21.8,21.5,00.0,31.1,23.1,04.6,0001.7,0010.22,0006.19,0005.50
2022-01-06 17:40:00,,0824.2,5.01,0.00,21.7,21.1,00.0,31.0,22.9,04.7,0001.5,0010.26,0006.22,0005.51
2022-01-06 17:41:00,,0824.3,5.01,0.00,21.5,20.8,00.0,31.0,22.7,04.7,0001.5,0010.32,0006.26,0005.53
2022-01-06 17:42:00,,0824.2,5.00,0.00,21.5,21.5,00.0,30.9,23.0,04.8,0001.6,0010.30,0006.25,0005.53
2022-01-06 17:43:00,,0824.2,5.01,0.00,21.7,22.5,00.0,31.0,23.4,04.7,0001.5,0010.31,0006.24,0005.52
2022-01-06 17:44:00,,0824.1,5.01,0.00,21.9,23.0,00.0,31.0,23.7,04.6,0001.3,0010.38,0006.27,0005.53
2022-01-06 17:45:00,,0824.1,5.00,0.00,21.9,22.5,00.0,31.0,23.5,04.6,0001.5,0010.35,0006.31,0005.57
2022-01-06 17:46:00,,0824.0,5.00,0.00,21.7,21.9,00.0,31.0,23.2,04.6,0001.6,0010.30,0006.31,0005.59
2022-01-06 17:47:00,,0824.1,5.01,0.00,21.6,21.3,00.0,30.9,22.9,04.6,0001.6,0010.46,0006.36,0005.59
2022-01-06 17:48:00,,0824.1,5.00,0.00,21.5,21.0,00.0,30.9,22.8,04.7,0002.0,0010.58,0006.41,0005.61
2022-01-06 17:49:00,,0824.1,5.01,0.00,21.4,20.8,00.0,30.8,22.6,04.8,0001.8,0010.50,0006.38,0005.62
2022-01-06 17:50:00,,0824.0,5.00,0.00,21.4,21.5,00.0,30.8,22.9,04.8,0002.1,0010.60,0006.38,0005.62
2022-01-06 17:51:00,,0824.0,5.00,0.00,21.6,22.4,00.0,30.8,23.3,04.8,0001.8,0010.59,0006.37,0005.62
2022-01-06 17:52:00,,0823.9,5.01,0.00,21.8,23.2,00.0,30.9,23.7,04.7,0001.6,0010.60,0006.38,0005.63
2022-01-06 17:53:00,,0823.9,4.99,0.00,21.9,23.0,00.0,30.9,23.7,04.6,0001.8,0010.53,0006.36,0005.63
2022-01-06 17:54:00,,0824.0,5.00,0.00,21.8,22.4,00.0,30.9,23.4,04.6,0001.8,0010.63,0006.34,0005.63
2022-01-06 17:55:00,,0824.0,5.01,0.00,21.7,21.8,00.0,30.9,23.2,04.6,0002.0,0010.71,0006.31,0005.63
2022-01-06 17:56:00,,0824.0,5.00,0.00,21.6,21.3,00.0,30.8,23.0,04.7,0001.6,0010.83,0006.32,0005.62
2022-01-06 17:57:00,,0823.8,5.00,0.00,21.5,20.9,00.0,30.8,22.8,04.7,0001.6,0010.91,0006.34,0005.61
2022-01-06 17:58:00,,0823.7,5.00,0.00,21.4,20.6,00.0,30.8,22.6,04.7,0001.5,0010.83,0006.30,0005.60
2022-01-06 17:59:00,,0823.7,5.00,0.00,21.4,21.3,00.0,30.7,22.9,04.7,0001.2,0010.71,0006.26,0005.59
